星链-3100 (STARLINK-3100 )

导读

STARLINK-3100是美国太空探索技术公司星链星座中的卫星,于北京时间2021年9月14日发射入轨,属于星链网络的组网卫星,旨在为全球提供低延迟、高速率的宽带互联网服务,补全天基通信覆盖,推动星链星座完成全球通信组网建设,支撑星链民用商用及相关服务拓展。

基本信息
目录编号:
49144
目录名称:
STARLINK-3100
国际标识:
2021-082Q
轨道中心:
EARTH
卫星名称:
星链-3100
卫星全名:
星链-3100 (STARLINK-3100 )
卫星状态:
在轨 (已飞行1823 天)
发射日期:
2021-09-14 UTC
国别 :
美国 (US)
星等 :
--
该卫星已列入 空间交会检测服务 Space Conjunction Data Service (SCDS) ,当前飞行风险评估等级: 无高风险
轨道信息
数据来源 国际轨道数据
星历时间: 2026-09-11T21:28:07+0800
6小时前
查看轨道信息
半长轴: 6950.194km
偏心率: 0.0003102
轨道倾角: 69.999°
近地点辐角 269.539°
升交点赤经 185.796°
平近点角 90.542°
近地点: 569.901km
远地点: 574.213km
周期: 96.107分钟
每日圈数: 14.983297
详细信息
固有亮度:
5
最大亮度:
2.5
卫星平台:
Starlink v1.5
覆盖范围:
全球
运营商:
太空探索技术公司
运营商所在国:
美国
制造商(研发单位):
太空探索技术公司
制造商所在国:
美国
使用方式:
暂无
卫星简介
星链(Starlink)计划是由太空探索技术公司(SpaceX)提出的一个巨型低轨卫星互联网星座项目,计划在2019年至2024年间在太空搭建由约1.2万颗卫星组成的“星链”网络,其中1584颗将部署在地球上空550千米处的近地轨道,并从2020年开始工作。该卫星仍在工作。
2D轨道图
3D轨道图
轨道高度分析图
轨道倾角分析图
轨道综合分析图
查看轨道综合分析图
交会数据列表
事件ID 空间交会对象 最接近时刻(TCA) 交会距离 交会风险概率(CRP) 交会风险指数(CRI) 操作
CDM_260911-035104-011904-914426
2026-09-11T
03:51:25+0000
2.214 km
极远距离
2.266193E-6 低风险 0.42
与全量物体交会距离演化趋势
与全量物体交会风险概率演化趋势